Tracking 18987 objects as of 25-Feb-2018
HD Live streaming from Space Station
objects crossing your sky now

ATLAS 55E R/B

Track ATLAS 55E R/B now!
10-day predictions


NORAD ID: 16137
Int'l Code: 1985-093B
Perigee: 927.1 km
Apogee: 20,368.6 km
Inclination: 63.7 °
Period: 368.3 minutes
Semi major axis: 17018 km
RCS: 2.2883 m2 (large)
Launch date: October 9, 1985
Source: United States (US)
Launch site: AIR FORCE WESTERN TEST RANGE (AFWTR)

Note: This is a ROCKET BODY
aabbcc
Your satellite tracking list
Your tracking list is empty




NASA's NSSDC Master Catalog

Two Line Element Set (TLE):
1 16137U 85093B   18054.69150850 +.00000026 +00000-0 +00000-0 0  9993
2 16137 063.6670 271.5401 5711741 356.6680 166.0912 03.91026420462372
Source of the keplerian elements: AFSPC